CAPE
0 0 0 0 0 0 0 0 0 0 0 0 0 0 0 0 0 0 0 0 0 0 0 0 0 385 919 922 722 386 403 989 1415 1430 1028 605 315 214 188 315 573 513 556 126
0 0 0 0 0 0 0 0 0 0 0 0 0 0 0 0 0 0 0 0 0 0 0 0 0 237 887 806 313 261 349 640 1181 1306 1286 865 370 140 122 254 162 308 432 207
0 0 0 0 0 0 0 0 0 0 0 0 0 0 0 0 0 0 0 0 0 0 0 0 2 177 598 729 416 59 69 612 1018 1194 1332 954 414 105 97 151 151 150 297 351
0 0 0 0 0 0 0 0 0 0 0 0 0 0 1 0 0 0 0 0 0 0 0 0 0 47 315 489 521 58 2 295 883 930 1140 1076 549 254 152 170 113 112 186 339
0 0 0 0 0 0 0 0 0 0 0 0 0 0 0 0 0 0 0 0 0 0 0 0 0 0 0 53 416 283 8 4 398 811 1272 1057 934 484 314 284 205 156 139 97
0 0 0 0 0 0 0 0 0 0 0 0 0 0 0 0 0 0 0 0 0 0 0 0 0 0 0 0 113 223 44 2 7 540 1032 1215 1056 713 332 277 233 164 160 142
0 0 0 0 0 0 0 0 0 0 0 0 0 0 0 0 0 0 0 0 0 0 0 0 0 0 0 0 20 37 8 1 0 99 702 998 1149 893 416 234 203 211 192 129
0 0 0 0 0 0 0 0 0 0 0 0 0 0 0 0 0 0 0 0 0 0 3 7 1 0 0 0 0 5 4 0 0 1 249 753 884 1189 732 362 272 113 201 6
0 0 0 0 0 0 0 0 0 0 0 1 0 0 0 0 0 0 0 0 0 0 0 0 0 0 0 10 12 12 7 0 0 0 23 345 625 908 654 442 244 111 102 20
0 0 0 0 0 0 0 0 0 0 0 0 0 0 0 0 0 0 0 6 0 0 1 21 31 10 4 15 43 30 27 16 1 3 5 64 388 692 622 468 342 183 68 0
0 0 0 0 0 0 0 0 0 0 0 0 0 0 0 0 0 0 1 0 0 0 0 1 117 113 113 158 244 47 7 25 2 15 54 71 421 445 374 298 12 72 16 0
0 0 0 0 0 0 0 0 0 0 0 0 0 0 0 0 0 0 0 4 0 0 8 66 33 269 257 228 389 299 58 42 70 84 99 104 252 383 471 8 18 0 0 0
0 0 0 0 0 0 0 0 0 0 0 0 0 0 0 0 1 0 0 0 5 20 11 29 217 394 333 300 438 287 10 1 40 157 244 210 359 389 53 21 0 0 0 0
0 0 0 0 0 0 0 0 0 0 0 0 0 0 0 1 17 0 0 0 102 219 134 139 207 311 359 551 457 53 8 22 0 22 277 286 269 98 4 0 0 0 0 0
0 0 0 0 0 0 0 0 0 0 0 0 0 0 0 0 0 0 20 25 175 158 91 84 112 144 350 461 532 40 1 8 1 2 2 5 0 0 0 0 0 0 0 0
0 0 0 0 0 0 0 0 0 0 0 0 12 18 3 32 35 75 142 73 177 344 74 153 250 345 335 378 276 2 0 0 0 0 0 0 0 0 0 0 0 0 0 0
0 0 0 0 0 0 0 0 0 0 0 16 69 245 68 69 71 272 283 182 347 171 185 29 126 174 112 130 62 4 0 0 0 0 0 0 0 0 0 0 2 13 2 0
0 0 0 0 0 0 10 32 19 0 0 0 2 0 0 3 31 319 320 338 195 222 150 89 90 165 51 136 82 22 0 0 0 0 0 0 0 0 0 3 3 0 0 0
0 0 0 0 0 0 0 20 0 0 1 0 0 0 0 10 109 107 41 127 58 98 79 96 104 63 13 65 25 42 35 2 0 0 0 0 0 0 0 0 3 3 0 0
25 71 101 0 0 0 37 0 0 0 4 0 0 0 0 1 402 1 78 174 117 27 11 28 8 10 23 0 21 0 6 21 0 0 0 0 0 0 0 0 0 0 0 0
37 79 11 52 0 0 11 0 0 0 0 0 0 0 0 0 15 57 164 174 161 77 18 7 1 0 0 0 0 5 0 0 1 2 0 0 7 11 1 0 0 0 0 0
0 0 0 2 0 0 4 0 0 0 0 0 0 0 0 74 48 30 43 110 74 83 49 29 7 6 0 0 0 0 0 0 0 0 3 0 0 10 2 0 0 0 0 0
4 56 93 74 74 4 0 0 0 0 0 0 0 0 7 34 49 28 32 55 50 31 25 53 55 27 6 0 0 0 0 2 0 3 0 0 2 0 2 4 0 0 0 0
63 52 15 0 0 0 0 0 0 1 0 0 0 16 19 19 0 4 23 27 53 40 11 12 38 37 24 0 0 0 0 0 1 2 2 0 0 0 18 35 0 0 0 0
60 21 0 0 0 0 0 0 0 0 0 0 0 0 0 15 4 1 0 6 31 42 10 11 27 38 9 0 0 0 0 0 0 3 6 1 0 0 0 30 0 1 0 0
16 0 0 0 0 0 0 0 0 0 0 0 0 0 0 0 0 0 2 0 0 19 48 70 70 61 35 0 0 0 0 0 0 0 7 14 19 9 0 0 0 0 0 0
CIN
0 0 0 0 0 0 0 0 0 0 0 0 0 0 0 0 0 0 0 0 0 0 0 0 0 -152 -132 -138 -226 -311 -284 -152 -71 -29 -54 -85 -113 -107 -90 -48 -14 -14 0 -16
0 0 0 0 0 0 0 0 0 0 0 0 0 0 0 0 0 0 0 0 0 0 0 0 0 -161 -122 -127 -269 -312 -276 -202 -103 -51 -33 -43 -76 -105 -118 -60 -70 -32 -1 0
0 0 0 0 0 0 0 0 0 0 0 0 0 0 0 0 0 0 0 0 0 0 0 0 -85 -188 -114 -143 -221 -381 -385 -177 -94 -51 -12 -19 -63 -141 -145 -115 -96 -60 -6 -1
0 0 0 0 0 0 0 0 0 0 0 -1 0 0 -21 0 0 0 0 0 0 0 0 0 0 -170 -110 -116 -157 -372 0 -246 -74 -36 -2 -18 -74 -96 -102 -87 -78 -55 -23 -3
0 0 0 0 0 0 0 0 0 0 0 0 0 0 0 0 0 0 0 0 0 0 0 0 0 0 0 -143 -144 -218 -29 -442 -174 -56 -2 -4 -3 -30 -50 -43 -45 -26 -34 -34
0 0 0 0 0 0 0 0 0 0 0 0 0 0 0 0 0 0 0 0 0 0 0 0 0 0 0 0 -181 -202 -366 0 -232 -137 -14 0 0 -8 -42 -41 -34 -22 -15 -15
0 0 0 0 0 0 0 0 0 0 0 0 0 0 0 0 0 0 0 0 0 0 0 0 0 0 0 0 -256 -247 -76 0 0 -251 -55 -16 0 -1 -40 -36 -19 -16 -9 -8
0 0 0 0 0 0 0 0 -1 0 0 0 0 0 0 0 0 0 0 0 0 0 -40 -61 -33 0 0 0 0 0 0 0 0 -17 -105 -16 -2 0 0 -7 -7 -14 0 -35
0 0 0 0 0 0 0 0 0 0 0 0 0 0 0 0 0 0 0 0 0 0 0 0 0 0 0 -87 -98 -153 0 0 0 0 -199 -43 -13 0 0 0 0 -6 -5 -27
0 0 0 0 0 0 0 0 0 0 0 0 0 0 0 0 0 0 0 -3 0 0 0 -2 -2 -3 -39 -31 -29 -78 -95 -100 -125 -120 -66 -130 -23 0 0 0 -1 0 -17 0
0 0 0 0 0 0 0 0 0 0 0 0 0 0 0 0 0 0 0 0 0 0 -2 0 0 0 -2 -24 -23 -82 -124 -104 -107 -66 -70 -104 -4 0 -3 -3 -40 -20 -5 0
0 0 0 0 0 0 0 0 0 0 0 0 0 0 0 0 0 0 0 -1 0 0 -22 -3 -9 0 0 -8 -5 -35 -75 -81 -63 -63 -64 -46 -19 -1 0 0 -8 0 0 0
0 0 0 0 0 0 0 0 0 0 0 0 0 0 0 0 0 0 0 0 0 -3 -4 -6 0 0 0 -17 -23 -40 -45 -56 -65 -25 -6 -35 -15 -2 -26 -23 0 0 0 0
0 0 0 0 0 0 0 0 0 0 0 0 0 0 0 0 0 0 0 -6 0 0 0 0 0 0 -1 0 -1 -71 -18 -35 -36 -9 0 0 -1 -15 -37 0 0 0 0 0
0 0 0 0 0 0 0 0 0 0 0 0 0 0 0 0 0 0 -21 -3 0 0 0 0 -2 0 0 0 0 -36 -17 -4 -13 -46 -18 -4 0 0 0 0 0 0 0 0
0 0 0 0 0 0 0 0 0 0 0 -3 -2 0 0 -7 -26 -8 0 -1 0 0 -21 -10 -3 0 -3 -1 0 0 -2 0 0 0 0 0 0 0 0 0 0 0 0 0
0 0 0 0 0 0 0 0 0 0 0 0 -3 0 -21 -24 -8 0 0 0 0 -1 0 -21 0 0 -10 -4 -4 -1 0 0 0 0 0 0 0 0 0 0 -1 -3 -3 0
0 0 0 0 0 0 -1 -1 -2 0 0 0 -1 -1 0 -6 -43 0 0 0 -1 -3 -2 -8 -4 -1 -19 -11 -5 -3 0 0 0 0 0 0 0 0 0 -1 -1 0 0 0
0 0 0 0 0 0 0 -10 0 -3 -4 0 0 0 0 -12 -4 0 -11 -8 -30 -5 -10 -7 -8 -15 -43 -8 -79 -52 -8 -2 0 0 0 0 0 0 0 0 -7 -10 0 0
0 0 0 0 0 0 -1 0 0 0 0 0 0 0 0 -1 0 0 -1 -2 -4 -9 0 -5 -4 0 -2 0 -36 0 -63 -14 0 0 0 0 0 0 -1 0 0 0 0 0
0 0 0 0 0 0 0 0 0 0 0 0 0 0 0 0 0 -24 -4 -2 -2 -10 -4 -8 0 0 0 0 0 0 0 0 -2 -3 0 0 -1 -3 -6 0 0 0 0 0
0 0 0 0 0 0 -1 0 0 0 0 0 0 0 0 -1 -4 -10 -6 -7 -16 -26 -35 -37 -3 -34 0 0 0 0 0 0 0 -3 -7 0 0 -3 -2 0 0 0 0 0
0 -1 0 0 0 -4 0 0 0 0 0 0 0 0 -20 -16 -8 -30 -7 -20 -11 0 0 -19 -38 -14 -18 0 0 0 0 0 0 0 0 0 -6 0 -2 -10 0 0 0 0
0 -1 0 0 0 0 0 0 0 -3 0 0 0 0 0 -3 0 -17 -47 -4 0 0 0 0 -58 -14 -23 0 0 0 0 0 0 0 0 0 0 0 0 0 0 0 0 0
0 0 0 0 0 0 0 0 0 0 0 0 0 0 0 0 0 0 0 -10 -10 -12 -2 -1 -1 -49 -38 0 0 0 0 0 0 0 0 -6 0 0 0 -1 0 0 0 0
0 0 0 0 0 0 0 0 0 0 0 0 0 0 0 0 0 0 0 0 0 -19 -7 -2 -3 -13 -18 0 0 0 0 0 0 -4 0 -14 -5 -6 0 0 0 0 0 0
Wind_Speed
nan nan nan nan nan nan nan nan nan nan nan nan nan nan nan nan nan nan nan nan nan nan nan nan nan 31 32 31 34 34 39 41 43 43 44 44 43 47 47 42 42 43 44 46
nan nan nan nan nan nan nan nan nan nan nan nan nan nan nan nan nan nan nan nan nan nan nan nan nan 38 37 34 34 35 39 43 41 41 43 46 46 45 45 41 40 40 41 43
nan nan nan nan nan nan nan nan nan nan nan nan nan nan nan nan nan nan nan nan nan nan nan nan nan 41 37 35 37 nan nan 43 44 46 48 50 50 46 nan 45 42 43 40 40
nan nan nan nan nan nan nan nan nan nan nan nan nan nan nan nan nan nan nan nan nan nan nan nan nan nan 41 37 41 nan nan 44 40 41 45 49 49 48 47 50 49 49 44 45
nan nan nan nan nan nan nan nan nan nan nan nan nan nan nan nan nan nan nan nan nan nan nan nan nan nan nan nan 45 47 nan nan 47 45 42 46 49 53 57 53 55 53 51 nan
nan nan nan nan nan nan nan nan nan nan nan nan nan nan nan nan nan nan nan nan nan nan nan nan nan nan nan nan 54 56 nan nan nan 53 52 51 52 58 58 56 54 54 52 50
nan nan nan nan nan nan nan nan nan nan nan nan nan nan nan nan nan nan nan nan nan nan nan nan nan nan nan nan nan nan nan nan nan nan 58 56 56 62 61 60 56 56 51 50
nan nan nan nan nan nan nan nan nan nan nan nan nan nan nan nan nan nan nan nan nan nan nan nan nan nan nan nan nan nan nan nan nan nan 65 60 60 59 58 58 58 53 50 nan
nan nan nan nan nan nan nan nan nan nan nan nan nan nan nan nan nan nan nan nan nan nan nan nan nan nan nan nan nan nan nan nan nan nan nan 60 57 59 55 57 58 56 57 nan
nan nan nan nan nan nan nan nan nan nan nan nan nan nan nan nan nan nan nan nan nan nan nan nan nan nan nan nan nan nan nan nan nan nan nan nan 57 65 63 64 61 59 nan nan
nan nan nan nan nan nan nan nan nan nan nan nan nan nan nan nan nan nan nan nan nan nan nan nan 78 80 80 68 58 nan nan nan nan nan nan nan 64 70 69 63 nan nan nan nan
nan nan nan nan nan nan nan nan nan nan nan nan nan nan nan nan nan nan nan nan nan nan nan nan nan 60 50 48 51 51 nan nan nan nan nan 64 68 65 66 nan nan nan nan nan
nan nan nan nan nan nan nan nan nan nan nan nan nan nan nan nan nan nan nan nan nan nan nan nan 34 36 34 40 46 44 nan nan nan 50 62 63 63 62 nan nan nan nan nan nan
nan nan nan nan nan nan nan nan nan nan nan nan nan nan nan nan nan nan nan nan 2 4 10 12 15 13 17 18 25 nan nan nan nan nan 40 43 46 nan nan nan nan nan nan nan
nan nan nan nan nan nan nan nan nan nan nan nan nan nan nan nan nan nan nan nan 4 2 nan nan 10 9 15 17 19 nan nan nan nan nan nan nan nan nan nan nan nan nan nan nan
nan nan nan nan nan nan nan nan nan nan nan nan nan nan nan nan nan nan 11 nan 7 7 nan 16 16 12 12 10 13 nan nan nan nan nan nan nan nan nan nan nan nan nan nan nan
nan nan nan nan nan nan nan nan nan nan nan nan nan 11 nan nan nan 8 12 9 13 15 21 nan 10 15 16 13 nan nan nan nan nan nan nan nan nan nan nan nan nan nan nan nan
nan nan nan nan nan nan nan nan nan nan nan nan nan nan nan nan nan 5 21 20 18 13 11 nan nan 7 nan 11 nan nan nan nan nan nan nan nan nan nan nan nan nan nan nan nan
nan nan nan nan nan nan nan nan nan nan nan nan nan nan nan nan 2 20 nan 16 nan nan nan nan 2 nan nan nan nan nan nan nan nan nan nan nan nan nan nan nan nan nan nan nan
nan nan 29 nan nan nan nan nan nan nan nan nan nan nan nan nan 12 nan nan 8 13 nan nan nan nan nan nan nan nan nan nan nan nan nan nan nan nan nan nan nan nan nan nan nan
nan nan nan nan nan nan nan nan nan nan nan nan nan nan nan nan nan nan 8 7 8 nan nan nan nan nan nan nan nan nan nan nan nan nan nan nan nan nan nan nan nan nan nan nan
nan nan nan nan nan nan nan nan nan nan nan nan nan nan nan nan nan nan nan 7 nan nan nan nan nan nan nan nan nan nan nan nan nan nan nan nan nan nan nan nan nan nan nan nan
nan nan nan nan nan nan nan nan nan nan nan nan nan nan nan nan nan nan nan nan nan nan nan nan nan nan nan nan nan nan nan nan nan nan nan nan nan nan nan nan nan nan nan nan
nan nan nan nan nan nan nan nan nan nan nan nan nan nan nan nan nan nan nan nan nan nan nan nan nan nan nan nan nan nan nan nan nan nan nan nan nan nan nan nan nan nan nan nan
nan nan nan nan nan nan nan nan nan nan nan nan nan nan nan nan nan nan nan nan nan nan nan nan nan nan nan nan nan nan nan nan nan nan nan nan nan nan nan nan nan nan nan nan
nan nan nan nan nan nan nan nan nan nan nan nan nan nan nan nan nan nan nan nan nan nan nan nan nan nan nan nan nan nan nan nan nan nan nan nan nan nan nan nan nan nan nan nan
Wind_Direction
nan nan nan nan nan nan nan nan nan nan nan nan nan nan nan nan nan nan nan nan nan nan nan nan nan 308 312 305 295 299 293 288 280 275 274 275 276 275 274 274 278 277 277 280
nan nan nan nan nan nan nan nan nan nan nan nan nan nan nan nan nan nan nan nan nan nan nan nan nan 299 302 302 299 300 294 290 284 279 274 273 273 275 280 278 280 276 279 280
nan nan nan nan nan nan nan nan nan nan nan nan nan nan nan nan nan nan nan nan nan nan nan nan nan 293 299 303 303 nan nan 291 283 280 271 268 271 272 nan 279 278 278 275 280
nan nan nan nan nan nan nan nan nan nan nan nan nan nan nan nan nan nan nan nan nan nan nan nan nan nan 293 295 295 nan nan 288 283 279 273 277 274 276 276 276 275 273 276 278
nan nan nan nan nan nan nan nan nan nan nan nan nan nan nan nan nan nan nan nan nan nan nan nan nan nan nan nan 285 288 nan nan 281 277 274 269 271 273 276 273 275 274 273 nan
nan nan nan nan nan nan nan nan nan nan nan nan nan nan nan nan nan nan nan nan nan nan nan nan nan nan nan nan 283 285 nan nan nan 278 276 275 274 274 272 275 273 270 270 271
nan nan nan nan nan nan nan nan nan nan nan nan nan nan nan nan nan nan nan nan nan nan nan nan nan nan nan nan nan nan nan nan nan nan 279 277 276 277 277 276 272 271 268 267
nan nan nan nan nan nan nan nan nan nan nan nan nan nan nan nan nan nan nan nan nan nan nan nan nan nan nan nan nan nan nan nan nan nan 283 279 275 265 267 275 271 273 272 nan
nan nan nan nan nan nan nan nan nan nan nan nan nan nan nan nan nan nan nan nan nan nan nan nan nan nan nan nan nan nan nan nan nan nan nan 274 264 261 263 268 269 271 274 nan
nan nan nan nan nan nan nan nan nan nan nan nan nan nan nan nan nan nan nan nan nan nan nan nan nan nan nan nan nan nan nan nan nan nan nan nan 255 255 256 265 269 269 nan nan
nan nan nan nan nan nan nan nan nan nan nan nan nan nan nan nan nan nan nan nan nan nan nan nan 277 275 278 277 270 nan nan nan nan nan nan nan 253 253 258 261 nan nan nan nan
nan nan nan nan nan nan nan nan nan nan nan nan nan nan nan nan nan nan nan nan nan nan nan nan nan 273 269 260 265 266 nan nan nan nan nan 245 249 249 251 nan nan nan nan nan
nan nan nan nan nan nan nan nan nan nan nan nan nan nan nan nan nan nan nan nan nan nan nan nan 284 284 274 270 272 271 nan nan nan 265 262 259 258 254 nan nan nan nan nan nan
nan nan nan nan nan nan nan nan nan nan nan nan nan nan nan nan nan nan nan nan 70 298 268 293 300 300 279 263 283 nan nan nan nan nan 265 261 258 nan nan nan nan nan nan nan
nan nan nan nan nan nan nan nan nan nan nan nan nan nan nan nan nan nan nan nan 163 114 nan nan 337 313 307 296 301 nan nan nan nan nan nan nan nan nan nan nan nan nan nan nan
nan nan nan nan nan nan nan nan nan nan nan nan nan nan nan nan nan nan 176 nan 222 251 nan 289 293 277 280 280 287 nan nan nan nan nan nan nan nan nan nan nan nan nan nan nan
nan nan nan nan nan nan nan nan nan nan nan nan nan 181 nan nan nan 189 196 235 247 283 286 nan 263 277 224 194 nan nan nan nan nan nan nan nan nan nan nan nan nan nan nan nan
nan nan nan nan nan nan nan nan nan nan nan nan nan nan nan nan nan 218 245 246 253 263 260 nan nan 250 nan 162 nan nan nan nan nan nan nan nan nan nan nan nan nan nan nan nan
nan nan nan nan nan nan nan nan nan nan nan nan nan nan nan nan 306 284 nan 225 nan nan nan nan 292 nan nan nan nan nan nan nan nan nan nan nan nan nan nan nan nan nan nan nan
nan nan 297 nan nan nan nan nan nan nan nan nan nan nan nan nan 272 nan nan 236 256 nan nan nan nan nan nan nan nan nan nan nan nan nan nan nan nan nan nan nan nan nan nan nan
nan nan nan nan nan nan nan nan nan nan nan nan nan nan nan nan nan nan 213 215 237 nan nan nan nan nan nan nan nan nan nan nan nan nan nan nan nan nan nan nan nan nan nan nan
nan nan nan nan nan nan nan nan nan nan nan nan nan nan nan nan nan nan nan 209 nan nan nan nan nan nan nan nan nan nan nan nan nan nan nan nan nan nan nan nan nan nan nan nan
nan nan nan nan nan nan nan nan nan nan nan nan nan nan nan nan nan nan nan nan nan nan nan nan nan nan nan nan nan nan nan nan nan nan nan nan nan nan nan nan nan nan nan nan
nan nan nan nan nan nan nan nan nan nan nan nan nan nan nan nan nan nan nan nan nan nan nan nan nan nan nan nan nan nan nan nan nan nan nan nan nan nan nan nan nan nan nan nan
nan nan nan nan nan nan nan nan nan nan nan nan nan nan nan nan nan nan nan nan nan nan nan nan nan nan nan nan nan nan nan nan nan nan nan nan nan nan nan nan nan nan nan nan
nan nan nan nan nan nan nan nan nan nan nan nan nan nan nan nan nan nan nan nan nan nan nan nan nan nan nan nan nan nan nan nan nan nan nan nan nan nan nan nan nan nan nan nan